Regional Weather Roundup
Issued by NWS

Home | Current Version | Previous Version | Graphics & Text | Print | Product List | Glossary On
Versions: 1 2 3 4 5 6 7 8 9 10 11 12 13 14 15 16 17 18 19 20 21 22 23 24 25 26 27 28 29 30 31 32 33 34 35 36 37 38 39 40 41 42 43 44 45 46 47 48 49 50
000
ASUS43 KFSD 170410
RWRSD

WEATHER ROUNDUP FOR SOUTH DAKOTA
NATIONAL WEATHER SERVICE SIOUX FALLS SD
1100 PM CDT TUE SEP 16 2014

NOTE: "FAIR" INDICATES FEW OR NO CLOUDS BELOW 12,000 FEET WITH NO
SIGNIFICANT WEATHER AND/OR OBSTRUCTIONS TO VISIBILITY.


SDZ001>005-009-010-012>017-170500-
NORTHWEST AND NORTH CENTRAL SOUTH DAKOTA

CITY           SKY/WX    TMP DP  RH WIND       PRES   REMARKS
BUFFALO          N/A     60  46  59 NE8       29.89R
FAITH            N/A     58  50  75 SE13      29.92S
MOBRIDGE       PTCLDY    60  53  77 E13       29.88S
$$

SDZ012>016-024>037-041>051-057-063-072>074-170500-
SOUTHWEST AND SOUTH CENTRAL SOUTH DAKOTA

CITY           SKY/WX    TMP DP  RH WIND       PRES   REMARKS
RAPID CTY ARPT CLEAR     55  46  71 W7        29.96S
PIERRE         MOCLDY    59  50  72 CALM      29.88F
CUSTER         CLEAR     53  41  63 NW5       30.11S
ELLSWORTH AFB  CLEAR     58  48  68 W2        29.96S
PHILIP         PTCLDY    57  51  80 NE3       29.91S
PINE RIDGE     CLEAR     59  49  69 NE8       29.98R
WINNER         FAIR      64  57  78 S6        29.92S
$$

SDZ004>011-016>023-039-040-170500-
NORTHEAST SOUTH DAKOTA

CITY           SKY/WX    TMP DP  RH WIND       PRES   REMARKS
ABERDEEN       CLEAR     51  50  96 E3        29.91S
WATERTOWN      MOCLDY    58  50  75 SE9       29.94F
SISSETON         N/A     58  54  86 S5        29.92F
$$

SDZ017-020-022-023-036>040-048>070-170500-
SOUTHEAST SOUTH DAKOTA

CITY           SKY/WX    TMP DP  RH WIND       PRES   REMARKS
SIOUX FALLS    CLOUDY    62  49  62 S9        29.97S
HURON          CLEAR     59  53  80 S9        29.91S
CHAMBERLAIN    PTCLDY    56  54  92 SE3       29.90S
MITCHELL       PTCLDY    58  53  84 SE9       29.92F
YANKTON        CLEAR     57  48  72 S7        29.96S
$$

ABBREVIATIONS USED IN REMARKS
   TC - TEMPERATURE IN CELSIUS
  WCI - WIND CHILL INDEX
   HX - HEAT INDEX
  VSB - VISIBILITY



USA.gov is the U.S. government's official web portal to all federal, state and local government web resources and services.